Time,TemperatureF,DewpointF,PressureIn,WindDirection,WindDirectionDegrees,WindSpeedMPH,WindSpeedGustMPH,Humidity,HourlyPrecipIn,Conditions,Clouds,dailyrainin,SoftwareType,DateUTC
2013-03-11 00:00:00,35.5,32.0,30.22,South,184,0.0,0.0,87,0.00,,---,0.00,VWS V13.01,2013-03-11 04:00:00,
2013-03-11 00:05:00,35.5,32.0,30.22,South,184,0.0,0.0,87,0.00,,---,0.00,VWS V13.01,2013-03-11 04:05:00,
2013-03-11 00:10:00,35.5,32.0,30.22,South,183,0.0,0.0,87,0.00,,---,0.00,VWS V13.01,2013-03-11 04:10:00,
2013-03-11 00:15:00,35.5,32.3,30.23,South,183,0.0,0.0,88,0.00,,---,0.00,VWS V13.01,2013-03-11 04:15:00,
2013-03-11 00:20:00,35.3,32.1,30.23,South,184,0.0,0.0,88,0.00,,---,0.00,VWS V13.01,2013-03-11 04:20:00,
2013-03-11 00:25:00,35.5,32.3,30.23,South,184,0.0,0.0,88,0.00,,---,0.00,VWS V13.01,2013-03-11 04:25:00,
2013-03-11 00:30:00,35.0,31.8,30.22,South,184,0.0,0.0,88,0.00,,---,0.00,VWS V13.01,2013-03-11 04:30:00,
2013-03-11 00:35:00,35.0,31.8,30.22,South,184,0.0,0.0,88,0.00,,---,0.00,VWS V13.01,2013-03-11 04:35:00,
2013-03-11 00:40:00,35.0,31.8,30.22,South,184,0.0,0.0,88,0.00,,---,0.00,VWS V13.01,2013-03-11 04:40:00,
2013-03-11 00:45:00,35.2,32.3,30.22,South,184,0.0,0.0,89,0.00,,---,0.00,VWS V13.01,2013-03-11 04:45:00,
2013-03-11 00:50:00,35.2,32.3,30.22,South,183,0.0,0.0,89,0.00,,---,0.00,VWS V13.01,2013-03-11 04:50:00,
2013-03-11 00:55:00,35.3,32.4,30.22,South,183,0.0,0.0,89,0.00,,---,0.00,VWS V13.01,2013-03-11 04:55:00,
2013-03-11 01:00:00,35.3,32.4,30.21,South,183,0.0,0.0,89,0.00,,---,0.00,VWS V13.01,2013-03-11 05:00:00,
2013-03-11 01:05:00,35.3,32.4,30.21,South,183,0.0,0.0,89,0.00,,---,0.00,VWS V13.01,2013-03-11 05:05:00,
2013-03-11 01:10:00,35.2,32.3,30.21,South,183,0.0,0.0,89,0.00,,---,0.00,VWS V13.01,2013-03-11 05:10:00,
2013-03-11 01:15:00,35.2,32.3,30.21,South,184,0.0,0.0,89,0.00,,---,0.00,VWS V13.01,2013-03-11 05:15:00,
2013-03-11 01:20:00,35.2,32.3,30.21,South,183,0.0,0.0,89,0.00,,---,0.00,VWS V13.01,2013-03-11 05:20:00,
2013-03-11 01:25:00,35.3,32.7,30.21,South,184,0.0,0.0,90,0.00,,---,0.00,VWS V13.01,2013-03-11 05:25:00,
2013-03-11 01:30:00,35.5,32.9,30.21,South,184,0.0,3.0,90,0.00,,---,0.00,VWS V13.01,2013-03-11 05:30:00,
2013-03-11 01:35:00,35.6,33.0,30.21,South,183,0.0,3.0,90,0.00,,---,0.00,VWS V13.01,2013-03-11 05:35:00,
2013-03-11 01:40:00,35.9,33.3,30.21,South,183,0.0,3.0,90,0.00,,---,0.00,VWS V13.01,2013-03-11 05:40:00,
2013-03-11 01:45:00,35.9,33.3,30.20,South,178,0.0,4.0,90,0.00,,---,0.00,VWS V13.01,2013-03-11 05:45:00,
2013-03-11 01:50:00,36.0,33.4,30.20,South,178,0.0,4.0,90,0.00,,---,0.00,VWS V13.01,2013-03-11 05:50:00,
2013-03-11 01:55:00,35.9,33.3,30.20,South,178,0.0,4.0,90,0.00,,---,0.00,VWS V13.01,2013-03-11 05:55:00,
2013-03-11 02:00:00,35.9,33.3,30.21,South,178,0.0,0.0,90,0.00,,---,0.00,VWS V13.01,2013-03-11 06:00:00,
2013-03-11 02:05:00,35.9,33.3,30.21,South,178,0.0,0.0,90,0.00,,---,0.00,VWS V13.01,2013-03-11 06:05:00,
2013-03-11 02:10:00,35.9,33.3,30.21,South,178,0.0,0.0,90,0.00,,---,0.00,VWS V13.01,2013-03-11 06:10:00,
2013-03-11 02:15:00,35.8,33.2,30.20,South,178,0.0,0.0,90,0.00,,---,0.00,VWS V13.01,2013-03-11 06:15:00,
2013-03-11 02:20:00,35.8,33.2,30.20,South,178,0.0,0.0,90,0.00,,---,0.00,VWS V13.01,2013-03-11 06:20:00,
2013-03-11 02:25:00,35.6,33.0,30.20,South,178,0.0,0.0,90,0.00,,---,0.00,VWS V13.01,2013-03-11 06:25:00,
2013-03-11 02:30:00,35.6,33.0,30.19,South,178,0.0,0.0,90,0.00,,---,0.00,VWS V13.01,2013-03-11 06:30:00,
2013-03-11 02:35:00,35.6,33.0,30.19,South,178,0.0,0.0,90,0.00,,---,0.00,VWS V13.01,2013-03-11 06:35:00,
2013-03-11 02:40:00,35.6,33.0,30.19,South,178,0.0,0.0,90,0.00,,---,0.00,VWS V13.01,2013-03-11 06:40:00,
2013-03-11 02:45:00,35.8,33.2,30.20,South,178,0.0,0.0,90,0.00,,---,0.00,VWS V13.01,2013-03-11 06:45:00,
2013-03-11 02:50:00,35.8,33.2,30.20,South,178,0.0,0.0,90,0.00,,---,0.00,VWS V13.01,2013-03-11 06:50:00,
2013-03-11 02:55:00,35.8,33.2,30.20,South,178,0.0,0.0,90,0.00,,---,0.00,VWS V13.01,2013-03-11 06:55:00,
2013-03-11 03:00:00,35.8,33.2,30.19,South,178,0.0,0.0,90,0.00,,---,0.00,VWS V13.01,2013-03-11 07:00:00,
2013-03-11 03:05:00,35.8,33.2,30.19,South,178,0.0,0.0,90,0.00,,---,0.00,VWS V13.01,2013-03-11 07:05:00,
2013-03-11 03:10:00,35.8,33.2,30.19,South,178,0.0,0.0,90,0.00,,---,0.00,VWS V13.01,2013-03-11 07:10:00,
2013-03-11 03:15:00,35.9,33.3,30.18,South,178,0.0,0.0,90,0.00,,---,0.00,VWS V13.01,2013-03-11 07:15:00,
2013-03-11 03:20:00,35.9,33.3,30.18,South,178,0.0,0.0,90,0.00,,---,0.00,VWS V13.01,2013-03-11 07:20:00,
2013-03-11 03:25:00,35.9,33.3,30.18,South,178,0.0,0.0,90,0.00,,---,0.00,VWS V13.01,2013-03-11 07:25:00,
2013-03-11 03:30:00,35.9,33.3,30.17,South,178,0.0,0.0,90,0.00,,---,0.00,VWS V13.01,2013-03-11 07:30:00,
2013-03-11 03:35:00,36.0,33.4,30.17,South,178,0.0,0.0,90,0.00,,---,0.00,VWS V13.01,2013-03-11 07:35:00,
2013-03-11 03:40:00,36.0,33.6,30.17,South,178,0.0,0.0,91,0.00,,---,0.00,VWS V13.01,2013-03-11 07:40:00,
2013-03-11 03:45:00,36.0,33.6,30.17,South,178,0.0,0.0,91,0.00,,---,0.00,VWS V13.01,2013-03-11 07:45:00,
2013-03-11 03:50:00,36.0,33.6,30.17,South,178,2.0,3.0,91,0.00,,---,0.00,VWS V13.01,2013-03-11 07:50:00,
2013-03-11 03:55:00,36.0,33.6,30.17,South,178,0.0,3.0,91,0.00,,---,0.00,VWS V13.01,2013-03-11 07:55:00,
2013-03-11 04:00:00,36.2,33.8,30.18,South,178,0.0,0.0,91,0.00,,---,0.00,VWS V13.01,2013-03-11 08:00:00,
2013-03-11 04:05:00,36.2,33.8,30.18,South,178,0.0,0.0,91,0.00,,---,0.00,VWS V13.01,2013-03-11 08:05:00,
2013-03-11 04:10:00,36.2,33.8,30.18,South,178,0.0,0.0,91,0.00,,---,0.00,VWS V13.01,2013-03-11 08:10:00,
2013-03-11 04:15:00,36.2,33.8,30.17,South,178,0.0,0.0,91,0.00,,---,0.00,VWS V13.01,2013-03-11 08:15:00,
2013-03-11 04:20:00,36.2,33.8,30.17,South,178,0.0,0.0,91,0.00,,---,0.00,VWS V13.01,2013-03-11 08:20:00,
2013-03-11 04:25:00,36.2,33.8,30.17,South,178,0.0,3.0,91,0.00,,---,0.00,VWS V13.01,2013-03-11 08:25:00,
2013-03-11 04:30:00,36.2,33.8,30.16,South,178,0.0,0.0,91,0.00,,---,0.00,VWS V13.01,2013-03-11 08:30:00,
2013-03-11 04:35:00,36.2,33.8,30.16,South,178,0.0,0.0,91,0.00,,---,0.00,VWS V13.01,2013-03-11 08:35:00,
2013-03-11 04:40:00,36.3,33.9,30.16,South,178,0.0,0.0,91,0.00,,---,0.00,VWS V13.01,2013-03-11 08:40:00,
2013-03-11 04:45:00,36.2,33.8,30.16,South,178,0.0,0.0,91,0.00,,---,0.00,VWS V13.01,2013-03-11 08:45:00,
2013-03-11 04:50:00,36.3,33.9,30.16,South,178,0.0,0.0,91,0.00,,---,0.00,VWS V13.01,2013-03-11 08:50:00,
2013-03-11 04:55:00,36.2,33.8,30.16,South,178,0.0,0.0,91,0.00,,---,0.00,VWS V13.01,2013-03-11 08:55:00,
2013-03-11 05:00:00,36.3,33.9,30.16,South,178,0.0,0.0,91,0.00,,---,0.00,VWS V13.01,2013-03-11 09:00:00,
2013-03-11 05:05:00,36.3,33.9,30.16,South,178,0.0,0.0,91,0.00,,---,0.00,VWS V13.01,2013-03-11 09:05:00,
2013-03-11 05:10:00,36.2,33.8,30.16,South,178,0.0,0.0,91,0.00,,---,0.00,VWS V13.01,2013-03-11 09:10:00,
2013-03-11 05:15:00,36.2,33.8,30.16,South,178,0.0,0.0,91,0.00,,---,0.00,VWS V13.01,2013-03-11 09:15:00,
2013-03-11 05:20:00,36.2,33.8,30.16,South,178,0.0,0.0,91,0.00,,---,0.00,VWS V13.01,2013-03-11 09:20:00,
2013-03-11 05:24:00,36.2,33.8,30.16,South,178,0.0,0.0,91,0.00,,---,0.00,VWS V13.01,2013-03-11 09:24:00,
2013-03-11 05:29:00,36.2,33.8,30.16,South,178,0.0,0.0,91,0.00,,---,0.00,VWS V13.01,2013-03-11 09:29:00,
2013-03-11 05:34:00,36.2,34.1,30.16,South,178,0.0,0.0,92,0.00,,---,0.00,VWS V13.01,2013-03-11 09:34:00,
2013-03-11 05:39:00,36.2,34.1,30.16,South,178,0.0,0.0,92,0.00,,---,0.00,VWS V13.01,2013-03-11 09:39:00,
2013-03-11 05:45:00,36.2,34.1,30.16,South,178,0.0,0.0,92,0.00,,---,0.00,VWS V13.01,2013-03-11 09:45:00,
2013-03-11 05:50:00,36.2,34.1,30.16,South,178,0.0,0.0,92,0.00,,---,0.00,VWS V13.01,2013-03-11 09:50:00,
2013-03-11 05:54:00,36.2,34.1,30.16,South,178,0.0,0.0,92,0.00,,---,0.00,VWS V13.01,2013-03-11 09:54:00,
2013-03-11 05:59:00,36.2,34.1,30.15,South,178,0.0,0.0,92,0.00,,---,0.00,VWS V13.01,2013-03-11 09:59:00,
2013-03-11 06:04:00,36.2,34.4,30.15,South,178,0.0,0.0,93,0.00,,---,0.00,VWS V13.01,2013-03-11 10:04:00,
2013-03-11 06:09:00,36.3,34.5,30.15,South,178,0.0,0.0,93,0.00,,---,0.00,VWS V13.01,2013-03-11 10:09:00,
2013-03-11 06:14:00,36.3,34.7,30.15,South,178,0.0,0.0,94,0.00,,---,0.00,VWS V13.01,2013-03-11 10:14:00,
2013-03-11 06:19:00,36.5,34.9,30.15,South,178,0.0,0.0,94,0.00,,---,0.00,VWS V13.01,2013-03-11 10:19:00,
2013-03-11 06:24:00,36.3,34.7,30.15,South,178,0.0,0.0,94,0.00,,---,0.00,VWS V13.01,2013-03-11 10:24:00,
2013-03-11 06:29:00,36.3,34.7,30.15,South,178,0.0,0.0,94,0.00,,---,0.00,VWS V13.01,2013-03-11 10:29:00,
2013-03-11 06:34:00,36.3,35.0,30.15,South,178,0.0,0.0,95,0.00,,---,0.00,VWS V13.01,2013-03-11 10:34:00,
2013-03-11 06:39:00,36.3,35.0,30.15,South,178,0.0,0.0,95,0.00,,---,0.00,VWS V13.01,2013-03-11 10:39:00,
2013-03-11 06:44:00,36.3,35.0,30.15,South,178,0.0,0.0,95,0.00,,---,0.00,VWS V13.01,2013-03-11 10:44:00,
2013-03-11 06:49:00,36.5,35.2,30.15,South,178,0.0,0.0,95,0.00,,---,0.00,VWS V13.01,2013-03-11 10:49:00,
2013-03-11 06:54:00,36.5,35.2,30.15,South,178,0.0,0.0,95,0.00,,---,0.00,VWS V13.01,2013-03-11 10:54:00,
2013-03-11 06:59:00,36.5,35.2,30.15,South,178,0.0,0.0,95,0.00,,---,0.00,VWS V13.01,2013-03-11 10:59:00,
2013-03-11 07:04:00,36.3,35.0,30.15,South,178,0.0,0.0,95,0.00,,---,0.00,VWS V13.01,2013-03-11 11:04:00,
2013-03-11 07:09:00,36.3,35.3,30.15,South,178,0.0,0.0,96,0.00,,---,0.00,VWS V13.01,2013-03-11 11:09:00,
2013-03-11 07:14:00,36.3,35.3,30.14,South,178,0.0,0.0,96,0.00,,---,0.00,VWS V13.01,2013-03-11 11:14:00,
2013-03-11 07:19:00,36.5,35.5,30.14,South,178,0.0,0.0,96,0.00,,---,0.00,VWS V13.01,2013-03-11 11:19:00,
2013-03-11 07:24:00,36.5,35.5,30.14,South,178,0.0,0.0,96,0.00,,---,0.00,VWS V13.01,2013-03-11 11:24:00,
2013-03-11 07:29:00,36.5,35.5,30.15,South,178,0.0,0.0,96,0.00,,---,0.00,VWS V13.01,2013-03-11 11:29:00,
2013-03-11 07:34:00,36.5,35.5,30.15,South,178,0.0,0.0,96,0.00,,---,0.00,VWS V13.01,2013-03-11 11:34:00,
2013-03-11 07:39:00,36.6,35.6,30.15,South,178,0.0,0.0,96,0.00,,---,0.00,VWS V13.01,2013-03-11 11:39:00,
2013-03-11 07:44:00,36.8,35.8,30.15,South,178,0.0,0.0,96,0.00,,---,0.00,VWS V13.01,2013-03-11 11:44:00,
2013-03-11 07:49:00,36.8,35.8,30.15,South,178,0.0,0.0,96,0.00,,---,0.00,VWS V13.01,2013-03-11 11:49:00,
2013-03-11 07:54:00,36.9,35.9,30.15,South,178,0.0,0.0,96,0.00,,---,0.00,VWS V13.01,2013-03-11 11:54:00,
2013-03-11 07:59:00,37.0,36.0,30.15,South,178,0.0,0.0,96,0.00,,---,0.00,VWS V13.01,2013-03-11 11:59:00,
2013-03-11 08:04:00,37.0,36.0,30.15,South,178,0.0,0.0,96,0.00,,---,0.00,VWS V13.01,2013-03-11 12:04:00,
2013-03-11 08:09:00,37.2,36.2,30.15,South,178,0.0,0.0,96,0.00,,---,0.00,VWS V13.01,2013-03-11 12:09:00,
2013-03-11 08:14:00,37.2,36.4,30.15,South,178,0.0,0.0,97,0.00,,---,0.00,VWS V13.01,2013-03-11 12:14:00,
2013-03-11 08:19:00,37.2,36.4,30.15,South,178,0.0,0.0,97,0.00,,---,0.00,VWS V13.01,2013-03-11 12:19:00,
2013-03-11 08:24:00,37.2,36.4,30.15,South,178,0.0,0.0,97,0.00,,---,0.00,VWS V13.01,2013-03-11 12:24:00,
2013-03-11 08:29:00,37.3,36.5,30.15,South,178,0.0,0.0,97,0.00,,---,0.00,VWS V13.01,2013-03-11 12:29:00,
2013-03-11 08:34:00,37.5,36.7,30.15,South,178,0.0,0.0,97,0.00,,---,0.00,VWS V13.01,2013-03-11 12:34:00,
2013-03-11 08:39:00,37.5,36.7,30.15,South,178,0.0,0.0,97,0.00,,---,0.00,VWS V13.01,2013-03-11 12:39:00,
2013-03-11 08:44:00,37.6,36.8,30.16,South,178,0.0,0.0,97,0.00,,---,0.00,VWS V13.01,2013-03-11 12:44:00,
2013-03-11 08:49:00,37.8,37.0,30.16,South,178,0.0,0.0,97,0.00,,---,0.00,VWS V13.01,2013-03-11 12:49:00,
2013-03-11 08:54:00,37.9,37.1,30.16,South,178,0.0,0.0,97,0.00,,---,0.00,VWS V13.01,2013-03-11 12:54:00,
2013-03-11 08:59:00,37.9,37.1,30.17,South,178,0.0,0.0,97,0.00,,---,0.00,VWS V13.01,2013-03-11 12:59:00,
2013-03-11 09:04:00,38.2,37.4,30.17,South,178,0.0,0.0,97,0.00,,---,0.00,VWS V13.01,2013-03-11 13:04:00,
2013-03-11 09:09:00,38.3,37.5,30.17,South,178,0.0,0.0,97,0.00,,---,0.00,VWS V13.01,2013-03-11 13:09:00,
2013-03-11 09:14:00,38.5,37.7,30.17,South,178,0.0,0.0,97,0.00,,---,0.00,VWS V13.01,2013-03-11 13:14:00,
2013-03-11 09:19:00,38.8,38.0,30.17,South,178,0.0,0.0,97,0.00,,---,0.00,VWS V13.01,2013-03-11 13:19:00,
2013-03-11 09:24:00,38.8,38.0,30.17,South,178,0.0,0.0,97,0.00,,---,0.00,VWS V13.01,2013-03-11 13:24:00,
2013-03-11 09:29:00,38.9,38.1,30.16,South,178,0.0,1.0,97,0.00,,---,0.00,VWS V13.01,2013-03-11 13:29:00,
2013-03-11 09:34:00,39.2,38.4,30.16,South,178,0.0,1.0,97,0.00,,---,0.00,VWS V13.01,2013-03-11 13:34:00,
2013-03-11 09:39:00,39.6,39.1,30.16,South,179,0.0,1.0,98,0.00,,---,0.00,VWS V13.01,2013-03-11 13:39:00,
2013-03-11 09:44:00,39.6,39.1,30.16,South,179,3.0,4.0,98,0.00,,---,0.00,VWS V13.01,2013-03-11 13:44:00,
2013-03-11 09:49:00,39.9,39.4,30.16,South,178,1.0,5.0,98,0.00,,---,0.00,VWS V13.01,2013-03-11 13:49:00,
2013-03-11 09:54:00,40.5,40.0,30.16,South,178,4.0,5.0,98,0.00,,---,0.00,VWS V13.01,2013-03-11 13:54:00,
2013-03-11 09:59:00,40.8,40.3,30.15,South,175,0.0,0.0,98,0.00,,---,0.00,VWS V13.01,2013-03-11 13:59:00,
2013-03-11 10:04:00,41.3,40.8,30.15,South,181,0.0,0.0,98,0.00,,---,0.00,VWS V13.01,2013-03-11 14:04:00,
2013-03-11 10:09:00,41.6,41.1,30.15,South,181,0.0,0.0,98,0.00,,---,0.00,VWS V13.01,2013-03-11 14:09:00,
2013-03-11 10:14:00,42.2,41.7,30.15,South,184,2.0,5.0,98,0.00,,---,0.00,VWS V13.01,2013-03-11 14:14:00,
2013-03-11 10:19:00,42.3,41.8,30.15,SSW,204,3.0,6.0,98,0.00,,---,0.00,VWS V13.01,2013-03-11 14:19:00,
2013-03-11 10:24:00,42.5,42.0,30.15,SSW,207,2.0,6.0,98,0.00,,---,0.00,VWS V13.01,2013-03-11 14:24:00,
2013-03-11 10:29:00,42.6,42.1,30.15,SSW,205,0.0,4.0,98,0.00,,---,0.00,VWS V13.01,2013-03-11 14:29:00,
2013-03-11 10:34:00,42.8,42.3,30.15,SSW,202,0.0,9.0,98,0.00,,---,0.00,VWS V13.01,2013-03-11 14:34:00,
2013-03-11 10:39:00,43.3,42.8,30.15,South,185,9.0,9.0,98,0.00,,---,0.00,VWS V13.01,2013-03-11 14:39:00,
2013-03-11 10:44:00,43.3,42.5,30.14,SSW,211,9.0,9.0,97,0.00,,---,0.00,VWS V13.01,2013-03-11 14:44:00,
2013-03-11 10:49:00,43.5,42.7,30.14,WSW,240,3.0,9.0,97,0.00,,---,0.00,VWS V13.01,2013-03-11 14:49:00,
2013-03-11 10:54:00,43.6,42.8,30.14,SSW,209,3.0,9.0,97,0.00,,---,0.00,VWS V13.01,2013-03-11 14:54:00,
2013-03-11 10:59:00,43.8,42.7,30.15,SW,215,4.0,4.0,96,0.00,,---,0.00,VWS V13.01,2013-03-11 14:59:00,
2013-03-11 11:04:00,44.2,43.1,30.15,SW,217,0.0,4.0,96,0.00,,---,0.00,VWS V13.01,2013-03-11 15:04:00,
2013-03-11 11:09:00,44.1,43.0,30.15,South,187,0.0,7.0,96,0.00,,---,0.00,VWS V13.01,2013-03-11 15:09:00,
2013-03-11 11:14:00,44.3,43.2,30.14,SSW,213,0.0,0.0,96,0.00,,---,0.00,VWS V13.01,2013-03-11 15:14:00,
2013-03-11 11:19:00,44.2,42.9,30.14,SSW,204,2.0,9.0,95,0.00,,---,0.00,VWS V13.01,2013-03-11 15:19:00,
2013-03-11 11:24:00,44.3,43.0,30.14,SW,229,5.0,9.0,95,0.00,,---,0.00,VWS V13.01,2013-03-11 15:24:00,
2013-03-11 11:29:00,44.6,43.3,30.15,SSW,192,0.0,3.0,95,0.00,,---,0.00,VWS V13.01,2013-03-11 15:29:00,
2013-03-11 11:34:00,44.8,43.5,30.15,SW,229,0.0,5.0,95,0.00,,---,0.00,VWS V13.01,2013-03-11 15:34:00,
2013-03-11 11:39:00,44.9,43.3,30.15,SW,221,0.0,5.0,94,0.00,,---,0.00,VWS V13.01,2013-03-11 15:39:00,
2013-03-11 11:44:00,45.2,43.6,30.14,SW,230,0.0,7.0,94,0.00,,---,0.00,VWS V13.01,2013-03-11 15:44:00,
2013-03-11 11:49:00,45.4,43.5,30.14,SSW,193,2.0,7.0,93,0.00,,---,0.00,VWS V13.01,2013-03-11 15:49:00,
2013-03-11 11:54:00,45.5,43.6,30.14,SW,221,2.0,7.0,93,0.00,,---,0.00,VWS V13.01,2013-03-11 15:54:00,
2013-03-11 11:59:00,45.7,43.5,30.13,SW,223,0.0,6.0,92,0.00,,---,0.00,VWS V13.01,2013-03-11 15:59:00,
2013-03-11 12:04:00,46.1,43.6,30.13,WSW,258,4.0,11.0,91,0.00,,---,0.00,VWS V13.01,2013-03-11 16:04:00,
2013-03-11 12:09:00,46.5,43.7,30.13,SW,221,5.0,11.0,90,0.00,,---,0.00,VWS V13.01,2013-03-11 16:09:00,
2013-03-11 12:15:00,47.1,43.7,30.12,SW,227,5.0,7.0,88,0.00,,---,0.00,VWS V13.01,2013-03-11 16:15:00,
2013-03-11 12:20:00,47.4,43.7,30.12,WSW,244,0.0,7.0,87,0.00,,---,0.00,VWS V13.01,2013-03-11 16:20:00,
2013-03-11 12:24:00,47.7,43.4,30.12,SSW,211,2.0,7.0,85,0.00,,---,0.00,VWS V13.01,2013-03-11 16:24:00,
2013-03-11 12:29:00,47.9,43.3,30.12,SSW,194,0.0,6.0,84,0.00,,---,0.00,VWS V13.01,2013-03-11 16:29:00,
2013-03-11 12:34:00,48.2,43.6,30.12,South,180,3.0,7.0,84,0.00,,---,0.00,VWS V13.01,2013-03-11 16:34:00,
2013-03-11 12:39:00,48.2,43.0,30.12,SSW,202,2.0,11.0,82,0.00,,---,0.00,VWS V13.01,2013-03-11 16:39:00,
2013-03-11 12:44:00,48.6,43.4,30.11,SSW,196,0.0,9.0,82,0.00,,---,0.00,VWS V13.01,2013-03-11 16:44:00,
2013-03-11 12:49:00,48.6,43.0,30.11,South,191,5.0,11.0,81,0.00,,---,0.00,VWS V13.01,2013-03-11 16:49:00,
2013-03-11 12:54:00,48.9,43.0,30.11,SW,222,5.0,11.0,80,0.00,,---,0.00,VWS V13.01,2013-03-11 16:54:00,
2013-03-11 12:59:00,49.2,43.0,30.11,SW,219,0.0,6.0,79,0.00,,---,0.00,VWS V13.01,2013-03-11 16:59:00,
2013-03-11 13:04:00,49.4,42.5,30.11,SW,217,0.0,6.0,77,0.00,,---,0.00,VWS V13.01,2013-03-11 17:04:00,
2013-03-11 13:10:00,49.6,42.7,30.11,SW,221,0.0,6.0,77,0.00,,---,0.00,VWS V13.01,2013-03-11 17:10:00,
2013-03-11 13:15:00,50.2,42.9,30.10,SW,227,0.0,3.0,76,0.00,,---,0.00,VWS V13.01,2013-03-11 17:15:00,
2013-03-11 13:20:00,50.4,41.7,30.10,South,177,6.0,8.0,72,0.00,,---,0.00,VWS V13.01,2013-03-11 17:20:00,
2013-03-11 13:24:00,50.8,41.4,30.10,SW,216,0.0,10.0,70,0.00,,---,0.00,VWS V13.01,2013-03-11 17:24:00,
2013-03-11 13:29:00,51.4,41.6,30.10,South,180,1.0,7.0,69,0.00,,---,0.00,VWS V13.01,2013-03-11 17:29:00,
2013-03-11 13:34:00,51.4,41.2,30.10,SSW,210,4.0,9.0,68,0.00,,---,0.00,VWS V13.01,2013-03-11 17:34:00,
2013-03-11 13:39:00,51.6,41.8,30.10,SW,217,4.0,9.0,69,0.00,,---,0.00,VWS V13.01,2013-03-11 17:39:00,
2013-03-11 13:44:00,51.6,39.8,30.10,SSW,199,7.0,11.0,64,0.00,,---,0.00,VWS V13.01,2013-03-11 17:44:00,
2013-03-11 13:49:00,51.9,40.5,30.10,SW,231,3.0,11.0,65,0.00,,---,0.00,VWS V13.01,2013-03-11 17:49:00,
2013-03-11 13:54:00,52.0,39.8,30.10,SW,221,4.0,11.0,63,0.00,,---,0.00,VWS V13.01,2013-03-11 17:54:00,
2013-03-11 13:59:00,52.3,40.5,30.09,SSW,200,4.0,6.0,64,0.00,,---,0.00,VWS V13.01,2013-03-11 17:59:00,
2013-03-11 14:04:00,52.8,41.4,30.09,SSW,209,9.0,9.0,65,0.00,,---,0.00,VWS V13.01,2013-03-11 18:04:00,
2013-03-11 14:09:00,52.8,40.6,30.09,SSW,211,4.0,9.0,63,0.00,,---,0.00,VWS V13.01,2013-03-11 18:09:00,
2013-03-11 14:14:00,52.8,40.2,30.07,WSW,250,3.0,8.0,62,0.00,,---,0.00,VWS V13.01,2013-03-11 18:14:00,
2013-03-11 14:20:00,53.1,40.4,30.07,SSW,197,0.0,8.0,62,0.00,,---,0.00,VWS V13.01,2013-03-11 18:20:00,
2013-03-11 14:24:00,53.5,40.4,30.07,WSW,250,6.0,8.0,61,0.00,,---,0.00,VWS V13.01,2013-03-11 18:24:00,
2013-03-11 14:29:00,53.3,40.6,30.07,SSW,192,0.0,8.0,62,0.00,,---,0.00,VWS V13.01,2013-03-11 18:29:00,
2013-03-11 14:34:00,53.3,40.6,30.07,South,186,0.0,8.0,62,0.00,,---,0.00,VWS V13.01,2013-03-11 18:34:00,
2013-03-11 14:39:00,53.6,40.9,30.07,South,187,0.0,8.0,62,0.00,,---,0.00,VWS V13.01,2013-03-11 18:39:00,
2013-03-11 14:44:00,54.2,40.6,30.05,SW,220,1.0,1.0,60,0.00,,---,0.00,VWS V13.01,2013-03-11 18:44:00,
2013-03-11 14:49:00,54.4,40.0,30.05,South,188,0.0,5.0,58,0.00,,---,0.00,VWS V13.01,2013-03-11 18:49:00,
2013-03-11 14:54:00,54.7,39.3,30.05,SW,226,0.0,11.0,56,0.00,,---,0.00,VWS V13.01,2013-03-11 18:54:00,
2013-03-11 15:00:00,55.3,40.3,30.05,SSW,199,0.0,8.0,57,0.00,,---,0.00,VWS V13.01,2013-03-11 19:00:00,
2013-03-11 15:05:00,55.6,40.6,30.05,SSW,203,0.0,8.0,57,0.00,,---,0.00,VWS V13.01,2013-03-11 19:05:00,
2013-03-11 15:10:00,55.9,39.5,30.05,SSW,211,0.0,8.0,54,0.00,,---,0.00,VWS V13.01,2013-03-11 19:10:00,
2013-03-11 15:15:00,55.9,39.5,30.05,SW,214,3.0,7.0,54,0.00,,---,0.00,VWS V13.01,2013-03-11 19:15:00,
2013-03-11 15:20:00,55.9,39.0,30.05,SW,222,1.0,7.0,53,0.00,,---,0.00,VWS V13.01,2013-03-11 19:20:00,
2013-03-11 15:25:00,55.9,39.5,30.05,South,186,0.0,11.0,54,0.00,,---,0.00,VWS V13.01,2013-03-11 19:25:00,
2013-03-11 15:30:00,55.9,39.5,30.04,South,180,3.0,6.0,54,0.00,,---,0.00,VWS V13.01,2013-03-11 19:30:00,
2013-03-11 15:35:00,56.0,39.6,30.04,South,177,0.0,7.0,54,0.00,,---,0.00,VWS V13.01,2013-03-11 19:35:00,
2013-03-11 15:39:00,56.2,39.3,30.04,South,186,0.0,7.0,53,0.00,,---,0.00,VWS V13.01,2013-03-11 19:39:00,
2013-03-11 15:44:00,56.3,39.9,30.03,South,190,0.0,0.0,54,0.00,,---,0.00,VWS V13.01,2013-03-11 19:44:00,
2013-03-11 15:49:00,56.7,39.3,30.03,SSW,201,0.0,0.0,52,0.00,,---,0.00,VWS V13.01,2013-03-11 19:49:00,
2013-03-11 15:54:00,56.9,39.0,30.03,SSW,208,0.0,6.0,51,0.00,,---,0.00,VWS V13.01,2013-03-11 19:54:00,
2013-03-11 15:59:00,57.2,39.8,30.03,SSW,201,4.0,10.0,52,0.00,,---,0.00,VWS V13.01,2013-03-11 19:59:00,
2013-03-11 16:05:00,57.3,38.8,30.03,SSW,198,5.0,10.0,50,0.00,,---,0.00,VWS V13.01,2013-03-11 20:05:00,
2013-03-11 16:10:00,57.3,39.3,30.03,South,180,0.0,10.0,51,0.00,,---,0.00,VWS V13.01,2013-03-11 20:10:00,
2013-03-11 16:15:00,57.5,39.0,30.02,SSW,194,5.0,9.0,50,0.00,,---,0.00,VWS V13.01,2013-03-11 20:15:00,
2013-03-11 16:20:00,57.3,39.8,30.02,SSE,161,0.0,9.0,52,0.00,,---,0.00,VWS V13.01,2013-03-11 20:20:00,
2013-03-11 16:25:00,57.5,39.5,30.02,SSE,168,0.0,9.0,51,0.00,,---,0.00,VWS V13.01,2013-03-11 20:25:00,
2013-03-11 16:30:00,57.5,39.0,30.02,SSE,167,2.0,6.0,50,0.00,,---,0.00,VWS V13.01,2013-03-11 20:30:00,
2013-03-11 16:35:00,57.6,40.1,30.02,South,186,3.0,6.0,52,0.00,,---,0.00,VWS V13.01,2013-03-11 20:35:00,
2013-03-11 16:40:00,58.0,40.0,30.02,SSE,155,4.0,6.0,51,0.00,,---,0.00,VWS V13.01,2013-03-11 20:40:00,
2013-03-11 16:45:00,58.1,40.1,30.01,SSE,157,3.0,7.0,51,0.00,,---,0.00,VWS V13.01,2013-03-11 20:45:00,
2013-03-11 16:50:00,58.1,39.6,30.01,South,181,6.0,15.0,50,0.00,,---,0.00,VWS V13.01,2013-03-11 20:50:00,
2013-03-11 16:55:00,58.1,40.6,30.01,South,174,3.0,15.0,52,0.00,,---,0.00,VWS V13.01,2013-03-11 20:55:00,
2013-03-11 17:00:00,58.1,40.6,30.01,South,171,6.0,10.0,52,0.00,,---,0.00,VWS V13.01,2013-03-11 21:00:00,
2013-03-11 17:05:00,58.1,39.6,30.01,SE,146,6.0,13.0,50,0.00,,---,0.00,VWS V13.01,2013-03-11 21:05:00,
2013-03-11 17:10:00,58.0,39.5,30.01,SSE,162,6.0,13.0,50,0.00,,---,0.00,VWS V13.01,2013-03-11 21:10:00,
2013-03-11 17:15:00,58.1,39.6,30.00,SSE,162,5.0,10.0,50,0.00,,---,0.00,VWS V13.01,2013-03-11 21:15:00,
2013-03-11 17:20:00,58.0,40.5,30.00,SSE,151,6.0,12.0,52,0.00,,---,0.00,VWS V13.01,2013-03-11 21:20:00,
2013-03-11 17:25:00,57.8,40.8,30.00,SE,145,10.0,12.0,53,0.00,,---,0.00,VWS V13.01,2013-03-11 21:25:00,
2013-03-11 17:30:00,57.6,41.1,30.00,SSE,150,10.0,12.0,54,0.00,,---,0.00,VWS V13.01,2013-03-11 21:30:00,
2013-03-11 17:35:00,57.5,41.0,30.00,SSE,159,7.0,12.0,54,0.00,,---,0.00,VWS V13.01,2013-03-11 21:35:00,
2013-03-11 17:40:00,57.2,41.2,30.00,SSE,166,5.0,12.0,55,0.00,,---,0.00,VWS V13.01,2013-03-11 21:40:00,
2013-03-11 17:45:00,56.9,41.8,29.99,SSE,162,11.0,12.0,57,0.00,,---,0.00,VWS V13.01,2013-03-11 21:45:00,
2013-03-11 17:50:00,56.7,42.1,29.99,South,185,4.0,12.0,58,0.00,,---,0.00,VWS V13.01,2013-03-11 21:50:00,
2013-03-11 17:55:00,56.5,41.9,29.99,SSE,166,6.0,12.0,58,0.00,,---,0.00,VWS V13.01,2013-03-11 21:55:00,
2013-03-11 18:00:00,56.3,41.7,30.00,SSE,165,7.0,10.0,58,0.00,,---,0.00,VWS V13.01,2013-03-11 22:00:00,
2013-03-11 18:05:00,56.0,41.9,30.00,South,172,5.0,10.0,59,0.00,,---,0.00,VWS V13.01,2013-03-11 22:05:00,
2013-03-11 18:10:00,55.9,42.2,30.00,South,174,9.0,13.0,60,0.00,,---,0.00,VWS V13.01,2013-03-11 22:10:00,
2013-03-11 18:15:00,55.7,42.0,29.99,South,178,5.0,12.0,60,0.00,,---,0.00,VWS V13.01,2013-03-11 22:15:00,
2013-03-11 18:20:00,55.4,42.2,29.99,SSW,192,7.0,12.0,61,0.00,,---,0.00,VWS V13.01,2013-03-11 22:20:00,
2013-03-11 18:25:00,55.1,42.3,29.99,SSE,161,9.0,12.0,62,0.00,,---,0.00,VWS V13.01,2013-03-11 22:25:00,
2013-03-11 18:30:00,54.8,42.5,29.99,SW,216,7.0,11.0,63,0.00,,---,0.00,VWS V13.01,2013-03-11 22:30:00,
2013-03-11 18:34:00,54.5,42.6,29.99,SSE,158,9.0,12.0,64,0.00,,---,0.00,VWS V13.01,2013-03-11 22:34:00,
2013-03-11 18:39:00,54.2,42.7,29.99,South,186,4.0,12.0,65,0.00,,---,0.00,VWS V13.01,2013-03-11 22:39:00,
2013-03-11 18:44:00,53.9,42.4,29.99,SSE,155,6.0,14.0,65,0.00,,---,0.00,VWS V13.01,2013-03-11 22:44:00,
2013-03-11 18:49:00,53.9,42.8,29.99,SSW,196,6.0,15.0,66,0.00,,---,0.00,VWS V13.01,2013-03-11 22:49:00,
2013-03-11 18:54:00,53.6,43.3,29.99,SSE,164,7.0,15.0,68,0.00,,---,0.00,VWS V13.01,2013-03-11 22:54:00,
2013-03-11 18:59:00,53.6,43.7,29.99,South,177,5.0,12.0,69,0.00,,---,0.00,VWS V13.01,2013-03-11 22:59:00,
2013-03-11 19:04:00,53.3,43.8,29.99,South,184,3.0,12.0,70,0.00,,---,0.00,VWS V13.01,2013-03-11 23:04:00,
2013-03-11 19:09:00,53.2,44.0,29.99,South,187,12.0,14.0,71,0.00,,---,0.00,VWS V13.01,2013-03-11 23:09:00,
2013-03-11 19:14:00,53.1,44.0,29.99,SSE,165,8.0,14.0,71,0.00,,---,0.00,VWS V13.01,2013-03-11 23:14:00,
2013-03-11 19:19:00,52.9,44.1,29.99,SSE,165,2.0,14.0,72,0.00,,---,0.00,VWS V13.01,2013-03-11 23:19:00,
2013-03-11 19:24:00,52.6,43.8,29.99,South,173,3.0,14.0,72,0.00,,---,0.00,VWS V13.01,2013-03-11 23:24:00,
2013-03-11 19:29:00,52.5,44.1,29.99,South,191,3.0,6.0,73,0.00,,---,0.00,VWS V13.01,2013-03-11 23:29:00,
2013-03-11 19:34:00,52.5,44.1,29.99,South,172,11.0,11.0,73,0.00,,---,0.00,VWS V13.01,2013-03-11 23:34:00,
2013-03-11 19:39:00,52.5,44.5,29.99,SSW,192,3.0,11.0,74,0.00,,---,0.00,VWS V13.01,2013-03-11 23:39:00,
2013-03-11 19:44:00,52.5,44.5,30.01,South,178,5.0,7.0,74,0.00,,---,0.00,VWS V13.01,2013-03-11 23:44:00,
2013-03-11 19:49:00,52.3,44.6,30.01,South,180,12.0,12.0,75,0.00,,---,0.00,VWS V13.01,2013-03-11 23:49:00,
2013-03-11 19:54:00,52.3,45.0,30.01,SSW,205,9.0,13.0,76,0.00,,---,0.00,VWS V13.01,2013-03-11 23:54:00,
2013-03-11 19:59:00,52.3,45.0,30.01,South,172,5.0,13.0,76,0.00,,---,0.00,VWS V13.01,2013-03-11 23:59:00,
2013-03-11 20:04:00,52.2,44.9,30.01,SSE,155,12.0,13.0,76,0.00,,---,0.00,VWS V13.01,2013-03-12 00:04:00,
2013-03-11 20:09:00,52.2,44.9,30.01,South,186,5.0,14.0,76,0.00,,---,0.00,VWS V13.01,2013-03-12 00:09:00,
2013-03-11 20:14:00,51.9,44.9,30.01,SSE,167,5.0,7.0,77,0.00,,---,0.00,VWS V13.01,2013-03-12 00:14:00,
2013-03-11 20:19:00,51.7,45.1,30.01,South,186,4.0,12.0,78,0.00,,---,0.00,VWS V13.01,2013-03-12 00:19:00,
2013-03-11 20:24:00,51.7,45.1,30.01,SSE,168,5.0,12.0,78,0.00,,---,0.00,VWS V13.01,2013-03-12 00:24:00,
2013-03-11 20:29:00,51.6,45.3,30.00,South,169,5.0,12.0,79,0.00,,---,0.00,VWS V13.01,2013-03-12 00:29:00,
2013-03-11 20:34:00,51.4,45.5,30.00,SSE,163,4.0,12.0,80,0.00,,---,0.00,VWS V13.01,2013-03-12 00:34:00,
2013-03-11 20:39:00,51.3,45.3,30.00,South,184,5.0,15.0,80,0.00,,---,0.00,VWS V13.01,2013-03-12 00:39:00,
2013-03-11 20:44:00,51.0,45.4,30.00,SSE,159,8.0,9.0,81,0.00,,---,0.00,VWS V13.01,2013-03-12 00:44:00,
2013-03-11 20:49:00,50.8,45.2,30.00,South,178,0.0,9.0,81,0.00,,---,0.00,VWS V13.01,2013-03-12 00:49:00,
2013-03-11 20:54:00,50.8,45.5,30.00,SSE,163,5.0,12.0,82,0.00,,---,0.00,VWS V13.01,2013-03-12 00:54:00,
2013-03-11 20:59:00,50.7,45.7,30.00,South,186,5.0,9.0,83,0.00,,---,0.00,VWS V13.01,2013-03-12 00:59:00,
2013-03-11 21:04:00,50.7,46.0,30.00,SSE,168,3.0,15.0,84,0.00,,---,0.00,VWS V13.01,2013-03-12 01:04:00,
2013-03-11 21:09:00,50.7,46.7,30.00,South,179,6.0,15.0,86,0.00,,---,0.00,VWS V13.01,2013-03-12 01:09:00,
2013-03-11 21:14:00,50.7,46.4,29.99,South,183,11.0,13.0,85,0.00,,---,0.00,VWS V13.01,2013-03-12 01:14:00,
2013-03-11 21:19:00,50.5,46.5,29.99,SSE,166,10.0,13.0,86,0.00,,---,0.00,VWS V13.01,2013-03-12 01:19:00,
2013-03-11 21:24:00,50.5,46.5,29.99,South,175,6.0,13.0,86,0.00,,---,0.00,VWS V13.01,2013-03-12 01:24:00,
2013-03-11 21:29:00,50.5,46.8,29.99,SSE,157,12.0,12.0,87,0.00,,---,0.00,VWS V13.01,2013-03-12 01:29:00,
2013-03-11 21:34:00,50.5,46.8,29.99,SSE,164,11.0,12.0,87,0.00,,---,0.00,VWS V13.01,2013-03-12 01:34:00,
2013-03-11 21:39:00,50.7,47.3,29.99,SSW,195,3.0,13.0,88,0.00,,---,0.00,VWS V13.01,2013-03-12 01:39:00,
2013-03-11 21:44:00,50.7,47.0,29.99,South,170,2.0,6.0,87,0.00,,---,0.00,VWS V13.01,2013-03-12 01:44:00,
2013-03-11 21:49:00,50.7,47.3,29.99,South,186,3.0,7.0,88,0.00,,---,0.00,VWS V13.01,2013-03-12 01:49:00,
2013-03-11 21:54:00,50.7,47.3,29.99,SSW,197,3.0,7.0,88,0.00,,---,0.00,VWS V13.01,2013-03-12 01:54:00,
2013-03-11 21:59:00,50.7,47.3,29.99,South,184,0.0,2.0,88,0.00,,---,0.00,VWS V13.01,2013-03-12 01:59:00,
2013-03-11 22:04:00,50.7,47.3,29.99,South,190,0.0,7.0,88,0.00,,---,0.00,VWS V13.01,2013-03-12 02:04:00,
2013-03-11 22:09:00,50.8,47.4,29.99,SSW,197,6.0,7.0,88,0.00,,---,0.00,VWS V13.01,2013-03-12 02:09:00,
2013-03-11 22:14:00,50.8,47.4,30.00,SSW,196,5.0,7.0,88,0.00,,---,0.00,VWS V13.01,2013-03-12 02:14:00,
2013-03-11 22:19:00,51.0,47.6,30.00,SSW,201,2.0,10.0,88,0.00,,---,0.00,VWS V13.01,2013-03-12 02:19:00,
2013-03-11 22:24:00,50.8,47.4,30.00,SSW,192,3.0,10.0,88,0.00,,---,0.00,VWS V13.01,2013-03-12 02:24:00,
2013-03-11 22:29:00,50.8,47.4,30.00,SSW,209,10.0,12.0,88,0.00,,---,0.00,VWS V13.01,2013-03-12 02:29:00,
2013-03-11 22:34:00,51.0,47.6,30.00,SSW,205,3.0,12.0,88,0.00,,---,0.00,VWS V13.01,2013-03-12 02:34:00,
2013-03-11 22:39:00,51.0,47.6,30.00,SSW,207,0.0,12.0,88,0.00,,---,0.00,VWS V13.01,2013-03-12 02:39:00,
2013-03-11 22:44:00,50.8,47.4,29.99,SSW,200,0.0,6.0,88,0.00,,---,0.00,VWS V13.01,2013-03-12 02:44:00,
2013-03-11 22:49:00,50.8,47.4,29.99,SSW,196,0.0,9.0,88,0.00,,---,0.00,VWS V13.01,2013-03-12 02:49:00,
2013-03-11 22:54:00,50.8,47.4,29.99,SSW,209,3.0,9.0,88,0.00,,---,0.00,VWS V13.01,2013-03-12 02:54:00,
2013-03-11 22:59:00,50.7,47.3,29.99,SW,226,0.0,5.0,88,0.00,,---,0.00,VWS V13.01,2013-03-12 02:59:00,
2013-03-11 23:04:00,50.7,47.3,29.99,SSW,194,0.0,5.0,88,0.00,,---,0.00,VWS V13.01,2013-03-12 03:04:00,
2013-03-11 23:09:00,50.5,47.1,29.99,SSW,194,0.0,5.0,88,0.00,,---,0.00,VWS V13.01,2013-03-12 03:09:00,
2013-03-11 23:14:00,50.4,47.3,29.99,SSW,197,0.0,2.0,89,0.00,,---,0.00,VWS V13.01,2013-03-12 03:14:00,
2013-03-11 23:19:00,50.5,47.4,29.99,SSW,209,4.0,9.0,89,0.00,,---,0.00,VWS V13.01,2013-03-12 03:19:00,
2013-03-11 23:24:00,50.7,47.6,29.99,SW,220,2.0,9.0,89,0.00,,---,0.00,VWS V13.01,2013-03-12 03:24:00,
2013-03-11 23:29:00,51.0,47.9,29.99,SSW,209,0.0,7.0,89,0.00,,---,0.00,VWS V13.01,2013-03-12 03:29:00,
2013-03-11 23:34:00,51.1,47.7,29.99,SSW,213,3.0,13.0,88,0.00,,---,0.00,VWS V13.01,2013-03-12 03:34:00,
2013-03-11 23:39:00,51.3,47.9,29.99,South,176,5.0,13.0,88,0.00,,---,0.00,VWS V13.01,2013-03-12 03:39:00,
2013-03-11 23:44:00,51.3,47.9,29.99,South,191,4.0,7.0,88,0.00,,---,0.00,VWS V13.01,2013-03-12 03:44:00,
2013-03-11 23:49:00,51.3,47.6,29.99,SSE,167,0.0,7.0,87,0.00,,---,0.00,VWS V13.01,2013-03-12 03:49:00,
2013-03-11 23:54:00,51.3,47.9,29.99,SW,215,0.0,8.0,88,0.00,,---,0.00,VWS V13.01,2013-03-12 03:54:00,
2013-03-11 23:59:00,51.1,47.7,29.98,SW,223,3.0,9.0,88,0.00,,---,0.00,VWS V13.01,2013-03-12 03:59:00,